Flag for Belarus Weather past 2 weeks in Barysaw, Belarus

Now
64 °F

Sunny.


Feels Like: 64 °F
Forecast: 43 / 63 °F
Wind: 8 mph from South

Location: Minsk

Current Time: Sep 19, 2014 at 3:43:23 PM

Latest Report: Sep 19, 2014 at 3:00 PM


Visibility: 10 mi

Pressure: 30.30 "Hg

Humidity: 32%

Dew point: 34 °F

Location of BarysawLocation

Historic Weather in Barysaw — Graph

°F

Barysaw temperature yesterday

Maximum temperature yesterday: 66 °F (at 2:30 PM)
Minimum temperature yesterday: 36 °F (at 5:30 AM)
Average temperature yesterday: 50 °F

Past Weeks' High & Low Weather Summary

 TemperatureHumidityPressure
High77 °F (Sep 13, 4:30 PM)100% (Sep 5, 1:04 AM)30.42 "Hg (Sep 5, 1:04 AM)
Low34 °F (Sep 16, 7:00 AM)27% (Sep 12, 2:00 PM)29.95 "Hg (Sep 10, 12:00 AM)
Average56 °F78%30.22 "Hg
* Reported Sep 4 2:00 PM — Sep 19 2:30 PM, Barysaw, Weather by CustomWeather, © 2014

Note: Actual official high and low records may vary slightly from our data, if they occured in-between our weather recording intervals... More about our weather records

Advertising

Barysaw weather history for previous 24 hours

 ConditionsComfort  
Time TempWeatherWind HumidityBarometerVisibility
2:30 PM
Sep 19
64 °FSunny.10 mph32%30.30 "Hg10 mi
2:00 PM64 °FSunny.13 mph32%30.30 "Hg10 mi
1:30 PM63 °FSunny.10 mph34%30.30 "Hg10 mi
1:00 PM63 °FSunny.10 mph37%30.33 "Hg10 mi
12:30 PM63 °FSunny.10 mph37%30.33 "Hg10 mi
12:00 PM61 °FPassing clouds.8 mph42%30.33 "HgN/A
11:30 AM61 °FSunny.8 mph39%30.33 "Hg10 mi
11:00 AM59 °FSunny.8 mph45%30.36 "Hg10 mi
10:30 AM57 °FPassing clouds.6 mph48%30.36 "HgN/A
10:00 AM55 °FPassing clouds.3 mph55%30.36 "HgN/A
9:30 AM52 °FSunny.3 mph72%30.36 "Hg10 mi
9:00 AM48 °FSunny.3 mph82%30.33 "Hg10 mi
8:30 AM45 °FClear.3 mph93%30.33 "Hg6 mi
8:00 AM39 °FFog.3 mph100%30.33 "Hg3 mi
7:30 AM36 °FLight fog.1 mph100%30.33 "Hg5 mi
7:00 AM36 °FLight fog.No wind100%30.33 "Hg6 mi
6:50 AM34 °FFog.No wind100%30.33 "Hg3 mi
6:30 AM34 °FFog.No wind100%30.33 "Hg0 mi
5:30 AM36 °FFog.No wind100%30.33 "Hg3 mi
5:00 AM36 °FFog.3 mph100%30.33 "Hg2 mi
4:50 AM37 °FFog.3 mph100%30.33 "Hg2 mi
4:30 AM37 °FFog.3 mph100%30.33 "Hg1 mi
4:00 AM36 °FFog.No wind100%30.33 "Hg1 mi
3:56 AM37 °FFog.No wind100%30.33 "Hg1 mi
3:30 AM37 °FFog.No wind100%30.33 "Hg3 mi
3:00 AM37 °FFog.1 mph100%30.36 "Hg3 mi
2:30 AM37 °FFog.1 mph100%30.36 "Hg3 mi
2:00 AM39 °FFog.1 mph93%30.36 "Hg2 mi
1:30 AM41 °FFog.3 mph93%30.36 "Hg3 mi
1:04 AM41 °FLight fog.3 mph93%30.36 "HgN/A
1:00 AM41 °FLight fog.3 mph93%30.36 "HgN/A
12:30 AM43 °FLight fog.3 mph93%30.36 "HgN/A
11:30 PM
Sep 18
45 °FLight fog.3 mph87%30.36 "HgN/A
11:00 PM43 °FLight fog.1 mph93%30.36 "HgN/A
10:30 PM45 °FLight fog.1 mph81%30.36 "HgN/A
10:00 PM45 °FClear.1 mph93%30.36 "Hg10 mi
9:30 PM46 °FClear.No wind87%30.33 "Hg10 mi
9:00 PM46 °FClear.No wind87%30.33 "Hg10 mi
8:30 PM46 °FClear.No wind87%30.33 "Hg10 mi
8:00 PM50 °FSunny.No wind82%30.33 "Hg10 mi
7:30 PM52 °FSunny.No wind77%30.33 "Hg10 mi
7:00 PM55 °FSunny.1 mph72%30.33 "Hg10 mi
6:30 PM61 °FSunny.3 mph48%30.33 "Hg10 mi
6:00 PM64 °FSunny.6 mph43%30.33 "Hg10 mi
5:30 PM64 °FSunny.8 mph40%30.33 "Hg10 mi
5:00 PM66 °FPassing clouds.8 mph37%30.33 "HgN/A
4:30 PM66 °FSunny.8 mph35%30.33 "Hg10 mi
4:00 PM66 °FPassing clouds.8 mph35%30.33 "HgN/A
3:30 PM66 °FPassing clouds.8 mph35%30.33 "HgN/A
3:00 PM66 °FSunny.8 mph35%30.33 "Hg10 mi
Weather by CustomWeather, © 2014

See weather overviewHow to use our weather pages